Jackpot

Texas Poker Multi Jackpot System

Kini Telah hadir Jackpot SUPER ROYAL FLUSH

Kini Telah hadir Jackpot 2000 (khusus table VIP keatas).

Ikutilah global jackpot yang tersedia di system kami, dengan system jackpot terbaru dan pertama di indonesia, anda dapat membeli jackpot dengan harga 100 rupiah saja dan menangkan hadiahnya hingga puluhan juta rupiah.

Jackpot bukanlah suatu keharusan untuk dibeli, namun kami memberikan suatu fitur tambahan untuk member tercinta dari www.indowin99.org.

Terdapat tiga pilihan harga jackpot yang bisa anda beli yaitu :100,500,1000 dan 2000(khusus table VIP Keatas) rupiah.

Hadiah dari Multi jackpot system www.indowin99.org

  1. full house x 10 harga jackpot yang anda beli.
      (contoh:anda membeli 1000 maka:1000 X10 = 10.000)
  2. four of kind x 250 harga jackpot yang anda beli
      (contoh:anda membeli 1000 maka:1000 X250 = 250.000)
  3. Straight flush x 1200
      (contoh:anda membeli 1000 maka:1000 X1200 = 1.200.000)
  4. Royal flush x 10000 harga jackpot yang anda beli
      (contoh:anda membeli 1000 maka:1000 X10000 = 10.000.000)
  5. SUPER ROYAL FLUSH x 30000 harga jackpot yang anda beli
      (contoh:anda membeli 1000 maka:1000 X30000 = 30.000.000)

Kondisi kartu

  1. full house adalah kondisi kartu dimana kartu anda dan kartu tengah dengan total 7 kartu bisa mendapatkan nilai 5 kartu dengan kombinasi 1 tris(three of kind) dan 1 pair, contoh 3 kartu 10 dan 2 kartu 5
  2. Four of kind adalah kondisi kartu dimana kartu anda dan kartu tengah dengan total 7 kartu bisa mendapatkan nilai 5 kartu dengan kombinasi 4 kartu yang sama jumlah dan 1 kartu apapun juga contoh anda mendapatkan 4 buah kartu angka 3 dan 1 kartu apapun.
  3. Staright flush adalah kondisi kartu dimana kartu anda dan kartu tengah dengan total 7 kartu bisa mendapatkan nilai 5 kartu dengan kombinasi seri / staright dengan kembang yang sama contoh : urutan kartu dari angka 5, 6, 7, 8 , 9 10 dengan kembang yg sama misalnya as hati
  4. Royal flush adalah kondisi kartu dimana kartu anda dan kartu tengah dengan total 7 kartu bisa mendapatkan nilai 5 kartu dengan kombinasi seri / staright dengan kembang yang sama tetapi kartu tersebut haruslah dimulai dari 10. contoh 10, Queen, Jack, King dan aces dengan kembang yang sama
  5. Super Royal flush adalah kondisi kartu dimana Kedua kartu anda digabung dengan 3 kartu pertama meja haruslah royal flush. contoh kartu anda 10,Queen kembang sama dan 3 kartu pertama meja adalah Jack, King dan aces dengan kembang yang sama

Demikian adalah penjelasan dari Multi Jackpot www.indowin99.org terima kasih dan selamat bermain salam hoki dari kami

Texas Poker Jackpot Winner

TOP SUPER ROYAL FLUSH
No.TanggalNamaPriceWin
121/05 19:50MASGHENSuper Royal flush3,000,000
221/05 18:30ALVINO50Super Royal flush3,000,000
321/05 16:57ALLIN_B0SSSuper Royal flush6,000,000
421/05 15:53AQHNUGABSPSuper Royal flush3,000,000
521/05 03:49EDAY777Super Royal flush3,000,000
TOP ROYAL FLUSH
No.TanggalNamaPriceWin
122/05 12:59MAKNYAK99Royal flush5,000,000
222/05 12:53APALAHERoyal flush10,000,000
322/05 11:54ASSLOVTRESRoyal flush5,000,000
422/05 11:34WARTINI95Royal flush10,000,000
522/05 11:32A_NARoyal flush1,000,000
TOP STRAIGHT FLUSH
No.TanggalNamaPriceWin
122/05 13:05DASA901Straight Flush600,000
222/05 13:04CIK4L123Straight Flush240,000
322/05 13:02BARASCHARAStraight Flush1,200,000
422/05 13:02GAMEAJAIBStraight Flush240,000
522/05 12:59ADUY90Straight Flush240,000
LATEST JACKPOT
No.TanggalNamaPriceWin
122/05 13:06PELUANGUSFull House2,000
222/05 13:06L331001Full House1,000
322/05 13:06MUGIA27Full House5,000
422/05 13:06TJ_88Full House20,000
522/05 13:06BRILIAN_12Full House5,000
622/05 13:06DFWD01LKHSFull House1,000
722/05 13:06YANTOTENGIFull House1,000
822/05 13:06BAGOY86Full House2,000
922/05 13:06SUKUET87Full House10,000
1022/05 13:06IYAP0KFull House10,000
1122/05 13:06KMBGKANTILFull House10,000
1222/05 13:06FASTINDIEFull House1,000
1322/05 13:06NUSNUSFull House10,000
1422/05 13:06MUMUNFC88Full House5,000
1522/05 13:06VALEEN77Full House1,000
1622/05 13:06MV12600Full House20,000
1722/05 13:06CAN1TIKFull House2,000
1822/05 13:06MACAU2002Full House2,000
1922/05 13:06T8T8Full House5,000
2022/05 13:06FUNKY83Four Of A Kind250,000
2122/05 13:06PLTA11Full House2,000
2222/05 13:06BIBI56789Full House5,000
2322/05 13:05AMLI1986Full House2,000
2422/05 13:05GIOGGIOGFull House5,000
2522/05 13:05LK4DGARUNK66Full House1,000
2622/05 13:05ZAHRAAULIAFull House5,000
2722/05 13:05IDD200195Full House5,000
2822/05 13:05MIO_150Full House2,000
2922/05 13:05VIP_MANSFull House5,000
3022/05 13:05MYST3RYFour Of A Kind50,000
3122/05 13:05CERIPING00Full House2,000
3222/05 13:05GEREN90Full House2,000
3322/05 13:05MIO_666Full House10,000
3422/05 13:05ILBAFull House2,000
3522/05 13:05CANCOUFull House2,000
3622/05 13:05SIPJU32Full House1,000
3722/05 13:05MANTAPS13Full House1,000
3822/05 13:05LIGAT11Full House2,000
3922/05 13:05YIQI888Full House20,000
4022/05 13:05LONGXXXXFull House10,000
4122/05 13:05AD4GGFour Of A Kind50,000
4222/05 13:05EGEG555Full House5,000
4322/05 13:05GANZ29Four Of A Kind50,000
4422/05 13:05DEVN1993Full House2,000
4522/05 13:05EDAY603Full House10,000
4622/05 13:05UMROH98Full House2,000
4722/05 13:05ESTEH128Full House10,000
4822/05 13:05VAZQUESFull House5,000
4922/05 13:05T41PIL4TFull House2,000
5022/05 13:05CADUK1933Full House2,000

Domino Multi Jackpot System

Ikutilah global jackpot yang tersedia di system kami, dengan system jackpot terbaru dan pertama di indonesia, anda dapat membeli jackpot dengan harga 100 rupiah saja dan menangkan hadiahnya hingga puluhan juta rupiah.

Jackpot bukanlah suatu keharusan untuk dibeli, namun kami memberikan suatu fitur tambahan untuk member tercinta dari www.indowin99.org.

Terdapat tiga pilihan harga jackpot yang bisa anda beli yaitu :100,500 dan 1000 rupiah.

Hadiah dari Multi jackpot system www.indowin99.org

  1. Murni Kecil x 50 harga jackpot yang anda beli.
      (contoh:anda membeli 1000 maka:1000 X 50 = 50.000)
  2. Murni Besar x 50 harga jackpot yang anda beli
      (contoh:anda membeli 1000 maka:1000 X 50 = 50.000)
  3. BALAK x 100 harga jackpot yang anda beli
      (contoh:anda membeli 1000 maka:1000 X 100 = 100.000)
  4. ENAM DEWA x 6666 harga jackpot yang anda beli
      (contoh:anda membeli 1000 maka:1000 X 6666 = 6.666.000)

Demikian adalah penjelasan dari Multi Jackpot www.indowin99.org terima kasih dan selamat bermain salam hoki dari kami

Domino Jackpot Winner

TOP ENAM DEWA
No.TanggalNamaPriceWin
122/05 12:06ODL1YEON0Rmurni enam3,333,000
222/05 09:41KARMAImurni enam6,666,000
322/05 08:40AXELALATASmurni enam3,333,000
422/05 03:53GALE2NYEmurni enam6,666,000
521/05 21:53DWBT0750murni enam3,333,000
TOP BALAK
No.TanggalNamaPriceWin
122/05 13:04HOKIBRO22balak100,000
222/05 13:02AUDR3Y07balak10,000
322/05 12:59KASMUIN1balak100,000
422/05 12:58HURAHURA79balak10,000
522/05 12:55AULEAbalak100,000
LATEST JACKPOT
No.TanggalNamaPriceWin
122/05 13:05RIMBINGmurni kecil50,000
222/05 13:04MLML66murni kecil50,000
322/05 13:04FLAY9murni besar5,000
422/05 13:04HOKIBRO22balak100,000
522/05 13:03SEPONG31murni besar25,000
622/05 13:02AUDR3Y07balak10,000
722/05 13:023COL13murni kecil50,000
822/05 13:01TRUMHUHmurni kecil50,000
922/05 13:003COL13murni kecil50,000
1022/05 13:00SAKRIL270murni besar5,000
1122/05 12:59KASMUIN1balak100,000
1222/05 12:58KTC6666murni besar50,000
1322/05 12:58IDHONK09murni kecil25,000
1422/05 12:58HURAHURA79balak10,000
1522/05 12:57AMETCAKmurni kecil50,000
1622/05 12:57PASRAH7125murni besar50,000
1722/05 12:57POTLOT007murni besar25,000
1822/05 12:56PASRAH7125lucky9925,000
1922/05 12:56MUSO12murni kecil50,000
2022/05 12:55QQPOKER28murni kecil50,000
2122/05 12:55AULEAbalak100,000
2222/05 12:55ASKADILAmurni kecil50,000
2322/05 12:55I9KUHQ1K1Omurni besar5,000
2422/05 12:55QQPOKER28murni besar50,000
2522/05 12:55ADITYA47murni besar5,000
2622/05 12:54ENZ77murni besar5,000
2722/05 12:5422122murni kecil50,000
2822/05 12:53YOUNKbalak100,000
2922/05 12:52Y0GA99murni kecil5,000
3022/05 12:52DJRKFMFmurni besar5,000
3122/05 12:50RAJABOETmurni kecil50,000
3222/05 12:50YUDII01murni besar50,000
3322/05 12:49DAENG876balak10,000
3422/05 12:48XQQVPMG1TRmurni kecil50,000
3522/05 12:47DJ_4CAYmurni besar5,000
3622/05 12:46RINA_99murni besar50,000
3722/05 12:45HORE338murni besar5,000
3822/05 12:45ENZ77murni besar5,000
3922/05 12:45SUHARI33balak100,000
4022/05 12:44PA1ZALmurni kecil25,000
4122/05 12:44BALUYEIMmurni besar50,000
4222/05 12:43KLIK6Omurni kecil25,000
4322/05 12:42AAN332211murni besar50,000
4422/05 12:40D94O59LUBEmurni kecil25,000
4522/05 12:40RUNAY02murni besar50,000
4622/05 12:403COL13balak100,000
4722/05 12:39INTIRUB86murni besar25,000
4822/05 12:38N63N-TOTmurni besar50,000
4922/05 12:37MASTER079murni besar5,000
5022/05 12:36HORE338murni besar5,000

Ceme Multi Jackpot System

Jackpot dilihat dari gabungan kartu pemain dengan kartu bandar. Bandar harus membeli jackpot sebanyak jumlah player yang sedang duduk. Sebagai contoh bila terdapat 3 pemain duduk bermain, dan bandar memutuskan untuk membeli jackpot Rp 1.000, maka pada periode tersebut bandar akan membeli jackpot sebanyak 3xRp1.000 = Rp3.000.

Jackpot bukanlah suatu keharusan untuk dibeli, namun kami memberikan suatu fitur tambahan untuk member tercinta dari www.indowin99.org.

Terdapat tiga pilihan harga jackpot yang bisa anda beli yaitu :100,500 dan 1000 rupiah.

Hadiah dari Multi jackpot system www.indowin99.org

  1. Murni Kecil x 50 harga jackpot yang anda beli.
      (contoh:anda membeli 1000 maka:1000 X 50 = 50.000)
  2. Murni Besar x 50 harga jackpot yang anda beli
      (contoh:anda membeli 1000 maka:1000 X 50 = 50.000)
  3. BALAK x 200 harga jackpot yang anda beli
      (contoh:anda membeli 1000 maka:1000 X 200 = 200.000)
  4. ENAM DEWA x 6666 harga jackpot yang anda beli
      (contoh:anda membeli 1000 maka:1000 X 6666 = 6.666.000)

Demikian adalah penjelasan dari Multi Jackpot www.indowin99.org terima kasih dan selamat bermain salam hoki dari kami

Ceme Jackpot Winner

TOP ENAM DEWA
No.TanggalNamaPriceWin
122/05 13:00UNTUNGLP12murni enam6,666,000
222/05 12:40DWBTANEU11murni enam6,666,000
322/05 12:40ALSYAM87murni enam6,666,000
422/05 11:59MBIS2000murni enam666,600
522/05 11:59ANTONI52murni enam6,666,000
TOP BALAK
No.TanggalNamaPriceWin
122/05 13:05SOBEK82balak200,000
222/05 13:05SITIHUbalak20,000
322/05 13:05MOVE99balak200,000
422/05 13:05KINGSB99balak200,000
522/05 13:05LEFCET69balak200,000
LATEST JACKPOT
No.TanggalNamaPriceWin
122/05 13:06PARMA66murni kecil5,000
222/05 13:06ICAL2805murni kecil5,000
322/05 13:05ARMAN212murni besar50,000
422/05 13:05KARIOO77murni besar50,000
522/05 13:05RICH8878murni besar50,000
622/05 13:05RONAEmurni besar50,000
722/05 13:05SOBEK82balak200,000
822/05 13:05SITIHUbalak20,000
922/05 13:05R3VOISTmurni kecil50,000
1022/05 13:05MOVE99balak200,000
1122/05 13:05RATNOCKCmurni kecil50,000
1222/05 13:05UBKANCILmurni kecil5,000
1322/05 13:05MARKMANSmurni kecil50,000
1422/05 13:05MARKMANSmurni kecil50,000
1522/05 13:05BEMS17murni kecil5,000
1622/05 13:05KINGSB99balak200,000
1722/05 13:05LEFCET69balak200,000
1822/05 13:05WWW99Xbalak200,000
1922/05 13:05SBY6FVSZVMmurni besar50,000
2022/05 13:05ILQLOU08JAmurni besar25,000
2122/05 13:05THAIXmurni kecil50,000
2222/05 13:05AVIET84murni kecil25,000
2322/05 13:05RAHMAN_1balak200,000
2422/05 13:05KEJOOObalak20,000
2522/05 13:05BANGBONG19murni besar25,000
2622/05 13:05SKRT4Rmurni besar50,000
2722/05 13:04PUKAT2murni kecil50,000
2822/05 13:04TJDATUK147murni kecil25,000
2922/05 13:04KAPALLA007murni kecil50,000
3022/05 13:04YKB881459murni kecil25,000
3122/05 13:04WWW99Xmurni besar50,000
3222/05 13:04LB993941murni besar25,000
3322/05 13:04THAIXmurni kecil50,000
3422/05 13:04F2TEFR6SRUmurni kecil50,000
3522/05 13:04YKB88784murni besar50,000
3622/05 13:04NOORSIDmurni kecil50,000
3722/05 13:04NOORSIDmurni kecil50,000
3822/05 13:04CAKBEN12murni kecil50,000
3922/05 13:04PUTOY75murni kecil5,000
4022/05 13:03RATNOCKCmurni kecil50,000
4122/05 13:03UBKANCILmurni kecil5,000
4222/05 13:03PARMA66murni besar5,000
4322/05 13:03MEJAKU11murni kecil25,000
4422/05 13:03MOSA909balak200,000
4522/05 13:03ZARGOT0809balak200,000
4622/05 13:03WWW99Xmurni besar50,000
4722/05 13:03DHUKUN123murni besar50,000
4822/05 13:03DONEEH99murni besar50,000
4922/05 13:03GAKPLINmurni kecil50,000
5022/05 13:03GALIS12murni kecil25,000